Regional Weather Roundup
Issued by NWS Charleston, SC

Current Version | Previous Version | Graphics & Text | Print | Product List | Glossary On
Versions: 1 2 3 4 5 6 7 8 9 10 11 12 13 14 15 16 17 18 19 20 21 22 23 24 25 26 27 28 29 30 31 32 33 34 35 36 37 38 39 40 41 42 43 44 45 46 47 48 49 50
000
ASUS42 KCHS 210925
RWRCHS

REGIONAL WEATHER ROUNDUP
NATIONAL WEATHER SERVICE CHARLESTON SC
500 AM EDT TUE OCT 21 2014

NOTE: "FAIR" INDICATES FEW OR NO CLOUDS BELOW 12,000 FEET WITH NO
SIGNIFICANT WEATHER AND/OR OBSTRUCTIONS TO VISIBILITY.

NOT ALL STATIONS ARE QUALITY CONTROLLED BY THE NATIONAL
WEATHER SERVICE. USE DATA WITH CAUTION...ESPECIALLY
DEWPOINT OBSERVATIONS.

SCZ027-030-031-034>040-042>050-211000-
...SOUTH CAROLINA...

CITY           SKY/WX    TMP DP  RH WIND       PRES   REMARKS
N CHARLESTON   PTCLDY    63  60  90 CALM      29.95R
WATERFRONT PRK   N/A     70 N/A N/A CALM        N/A
FORT JOHNSON   NOT AVBL
JOHNS ISLAND   MOSUNNY   64  64 100 CALM      29.96R
PINOPOLIS        N/A     66  63  88 SW6       29.87S
MONCKS CORNER  FAIR      61  61 100 CALM      29.95R
SUMMERVILLE    FAIR      55  55 100 CALM      29.96R
BEAUFORT MCAS  MOCLDY    64  63  96 CALM      29.95S
BEAUFORT ARPT  PTSUNNY   64  64 100 CALM      29.95S
HILTON HEAD IS RAIN      66  66 100 N6        29.96S
GEORGETOWN     NOT AVBL
WALTERBORO     MOSUNNY   59 N/A N/A CALM      29.96S
ORANGEBURG     CLEAR     56  52  86 NW3       29.95S
BARNWELL       FAIR      52  50  93 CALM      29.97R
AIKEN          FAIR      48  48 100 CALM      29.99S
MANNING        FAIR      55 N/A N/A CALM      29.95S
KINGSTREE      NOT AVBL
COLUMBIA       CLEAR     51  47  86 CALM      29.95S
SUMTER         CLEAR     55  52  91 SW1       29.93S
FLORENCE       CLEAR     54  52  93 CALM      29.93F
MYRTLE BEACH   PTCLDY    59  54  82 CALM      29.94R
N MYRTLE BEACH CLEAR     57  55  93 CALM      29.93S

$$

GAZ063-065-086>088-099>101-113>116-118-119-134-136>141-150-211000-
...GEORGIA...

CITY           SKY/WX    TMP DP  RH WIND       PRES   REMARKS
SAVANNAH ARPT  MOCLDY    66  62  87 CALM      29.96R
HUNTER AAF     CLOUDY    66  66 100 N2        29.94R
FORT STEWART   MOCLDY    64  63  94 CALM      29.95R
STATESBORO     NOT AVBL
SYLVANIA       SUNNY     58  57  98 CALM      29.97S
CLAXTON        FAIR      59  59 100 CALM      29.97R FOG
THOMSON        CLEAR     50  50 100 CALM      30.01S
AUGUSTA-BUSH   CLEAR     46  45  96 CALM      29.97S
AUGUSTA-DANIEL CLEAR     58  50  75 CALM      29.97S
SWAINSBORO     FAIR      54  54 100 MISG      29.98S
VIDALIA        CLEAR     57  55  94 CALM      29.97S
ALMA           PTCLDY    57  56  96 CALM      29.96F
WAYCROSS       PTCLDY    64  64  99 CALM      29.96S
JESUP          FAIR      66  64  94 N3        29.96S
BRUNSWICK      PTCLDY    64  63  94 CALM      29.95S
SAINT SIMONS   CLEAR     64  64 100 W5        29.94S

$$

SCZ027-028-034-036>038-045-046-048>050-GAZ119-141-211000-
...LAKE AND SUPPLEMENTAL COASTAL OBSERVATIONS...

STATION/POSITION TIME  TEMP    WIND        PRES    WAVE   SWELL
                       AIR SEA DIR/SP/G            HT/PER HT/PER/DIR
                 (UTC) (F)     (DEG/KT/KT) (MB)    (FT/S) (FT/S/D)
UPR LAKE MARION  NOT AVBL
WINYAH BAY       0900   59     310/  1     1013.0S
LAKE MURRAY      0800   61     250/  2/  4 1013.5F
ACE BASIN NERRS  0900   65        CALM     1014.0S
FORT PULASKI     0900   67     320/  6/  7 1014.5R
SAPELO ISLAND    NOT AVBL

$$

ANZ835-935-AMZ111-154-330-350-352-354-374-450-454-472-211000-
...C-MAN AND BUOY OBSERVATIONS...

STATION/POSITION TIME  TEMP    WIND        PRES    WAVE   SWELL
                       AIR SEA DIR/SP/G            HT/PER HT/PER/DIR
                 (UTC) (F)     (DEG/KT/KT) (MB)    (FT/S) (FT/S/D)
FOLLY BEACH CMAN 0900   67     290/  3/  3 1014.6R
BUOY 41004       0900   74 79   CALM  /  2 1013.5R   2/ 9   2/ 9
BUOY 41008       0900   73 76  310/ 14/ 16 1013.5R   2/10   2/ 70/10
5E ST. MARYS GA  0900      77                N/A     2/ 9
FRYING PAN BUOY  0900   73 75  280/ 12/ 14 1014.0F   2/ 9   2/ 90/ 9
BUOY 41025       0900   64     250/  6/  8 1013.9R   3/ 8   3/ 60/ 8
CAPE LOOKOUT NC  0900   67     300/  9/ 10 1013.3R
BUOY 41002       0836   70 80  200/ 16/ 17 1015.0R   4/ 9   3/100/ 9
BUOY 41010       0900   80 80  240/  8/ 10 1013.5F   3/ 8   3/ 80/ 8
BUOY 41012       NOT AVBL
ST AUGUSTINE FL  0900   69     290/  6/  6 1014.3F
CAPERS NEARSHORE 0800   71      40/  4/  4   N/A
FRIPP NEARSHORE  NOT AVBL


$$



USA.gov is the U.S. government's official web portal to all federal, state and local government web resources and services.